CAPE
0 0 0 0 0 0 0 22 61 59 17 233 537 636 113 913 463 321 1259 1617 1378 989 885 1360 1366 1479 1410 1294 1051 856 717 524 456 459 356 259 273 373 455 513 557 588 558 303 175 0 0 0 0
0 0 0 0 0 13 51 12 1 19 274 768 1449 1453 1340 1426 1322 1319 1562 1695 1354 986 918 1469 1220 1256 1213 1043 902 745 640 559 525 416 351 429 469 573 649 840 869 851 825 468 194 27 14 33 68
0 0 0 7 3 10 44 12 19 319 421 804 958 1605 1569 984 854 994 1392 1596 1424 893 692 1230 1017 1063 1056 898 772 600 552 502 402 425 585 600 649 638 752 859 1035 1066 975 565 251 107 54 83 234
0 0 0 0 1 4 4 31 257 411 537 854 1016 1497 1110 467 269 111 1149 1862 1219 596 501 814 797 902 950 878 682 535 466 348 424 534 693 730 729 639 619 519 718 1035 958 559 318 115 75 201 210
0 0 0 39 23 7 0 5 371 561 696 1120 1257 721 1395 1254 1177 969 1551 1942 1320 169 609 887 780 809 963 894 655 485 483 415 579 629 693 694 694 736 644 437 456 533 594 448 209 116 148 241 153
0 0 13 48 20 0 13 261 498 987 1153 1301 1205 1099 1306 903 1128 1212 1679 1712 1218 1028 828 587 782 832 744 613 495 433 444 560 658 710 754 832 836 682 655 565 411 453 479 398 329 299 213 76 0
0 6 56 2 38 170 335 706 859 963 1044 1371 1550 1347 1398 1095 1090 1637 1443 1132 1072 635 476 402 228 458 316 250 247 308 517 621 673 676 725 537 417 425 449 413 332 303 352 353 320 271 143 0 0
0 0 8 19 31 12 532 723 963 1108 1492 1463 1466 1279 1423 1047 1125 1244 1310 1021 706 475 161 239 203 330 374 314 267 340 454 562 614 512 348 273 293 334 338 354 430 348 332 360 281 120 0 0 0
0 1 32 35 54 2 372 753 1117 1082 1274 1528 1647 1881 1224 1037 1009 958 1052 867 724 536 471 432 186 141 95 66 275 374 560 475 325 286 256 119 46 63 119 283 412 355 199 228 159 24 0 0 0
0 35 15 6 27 2 93 564 913 1007 1334 1458 1003 1056 819 875 818 951 950 621 559 466 382 448 262 247 161 7 222 260 379 275 215 154 124 86 201 240 174 157 185 117 17 0 0 0 0 0 0
2 8 2 22 0 5 58 522 789 883 877 1055 1245 800 739 786 1081 811 262 293 326 346 304 287 129 227 97 4 93 124 210 323 298 267 356 377 297 308 248 75 18 1 0 0 0 0 0 0 0
0 4 1 7 0 19 372 618 772 996 1308 1462 1061 702 601 563 595 259 126 179 125 149 227 166 170 60 29 7 28 113 195 288 300 281 344 444 354 495 313 189 113 31 0 0 0 0 0 0 0
1 19 8 23 20 76 411 528 617 979 1173 934 669 492 350 269 364 62 58 3 58 42 29 8 14 32 6 11 3 118 157 208 266 312 313 326 395 550 319 193 92 37 9 0 0 0 0 0 0
1 1 65 39 112 425 471 574 727 1010 868 779 678 492 151 84 33 26 6 1 9 0 21 5 7 4 2 4 17 99 188 202 195 233 227 222 231 671 284 211 85 27 9 0 0 0 0 0 0
0 4 53 75 155 271 406 129 738 749 775 695 195 57 5 87 7 21 1 21 5 0 5 0 0 3 1 0 65 84 125 105 105 104 503 297 323 628 361 241 108 36 13 0 0 0 0 0 0
0 9 91 26 29 103 68 135 635 571 537 412 233 148 79 161 226 28 23 4 2 0 0 0 0 0 82 116 239 131 160 151 111 276 516 511 460 453 349 157 83 14 20 0 0 0 0 0 0
6 28 82 30 0 137 242 11 520 482 173 92 186 151 81 196 239 252 218 7 4 3 18 0 58 62 216 155 174 73 70 154 56 307 596 559 472 372 388 162 71 22 29 0 0 0 0 0 0
36 47 48 105 58 60 130 60 740 572 340 181 51 31 29 103 182 145 51 56 72 14 3 3 104 143 311 259 289 110 61 194 334 627 631 527 359 239 258 150 39 68 0 0 0 0 0 0 0
17 26 36 17 74 52 61 76 97 802 432 363 220 98 90 124 138 190 38 22 3 15 4 42 91 238 359 265 146 77 24 158 529 865 616 546 424 200 249 154 14 42 0 0 0 0 0 0 0
28 43 38 20 0 0 8 50 46 738 686 555 399 356 192 140 153 183 178 33 32 46 34 19 39 153 398 433 122 31 112 208 380 631 670 638 528 204 199 76 0 0 0 0 0 0 0 0 0
35 50 45 30 12 0 0 4 35 179 633 755 517 446 338 235 169 208 206 237 122 167 224 239 302 387 666 571 301 102 294 443 480 483 510 499 405 127 29 10 13 7 6 0 0 0 0 0 0
47 19 14 5 11 43 7 2 20 65 196 620 787 612 440 415 360 263 361 376 300 340 527 412 510 561 827 929 637 220 293 578 614 632 375 255 78 34 21 15 27 41 18 13 11 0 0 0 6
29 29 20 41 80 57 36 22 20 8 37 104 385 605 430 395 430 415 429 518 606 522 718 775 560 580 893 1152 1254 715 449 553 810 557 354 266 15 23 42 33 28 41 26 20 12 2 0 21 10
26 46 49 67 109 121 39 68 8 28 2 25 69 298 461 396 393 393 502 631 594 732 1015 1196 683 561 671 1250 1042 1009 701 741 840 663 298 70 19 39 63 72 37 50 29 72 31 0 0 4 7
15 76 100 121 134 139 75 43 35 14 42 6 12 154 430 477 438 416 419 553 870 1000 1166 1246 832 885 930 1201 1374 879 585 777 856 689 226 85 61 53 93 124 164 120 73 21 3 2 6 3 1
17 96 146 41 216 155 79 14 50 36 6 3 0 29 76 514 528 459 352 681 923 1200 1435 1273 1132 1201 1152 1192 1144 587 274 200 529 886 271 102 74 148 161 219 199 65 25 9 27 38 43 1 3
44 72 108 75 125 175 167 99 42 0 0 1 15 166 239 153 511 582 469 454 905 1174 1671 2145 1537 1438 1288 1316 683 514 542 477 755 501 289 128 190 207 269 159 80 59 28 42 42 39 9 6 0
4 75 121 115 99 142 146 165 144 29 6 0 0 12 192 250 232 307 539 662 754 1067 1353 2308 2060 1720 1509 847 895 505 499 721 690 553 266 190 252 266 292 148 72 85 49 25 30 13 7 9 5
0 76 88 121 148 150 228 188 107 90 24 0 9 1 5 72 383 402 343 411 655 963 1243 1532 1992 1929 1624 1374 1049 327 335 392 444 416 271 192 172 164 108 66 63 75 11 9 37 16 12 4 0
35 28 98 278 127 152 187 189 86 67 35 6 1 1 2 52 157 533 652 670 678 774 992 1314 1713 1875 1834 1738 959 536 773 611 542 674 542 151 69 51 7 31 37 59 36 8 19 17 12 7 0
CIN
-0 -0 -0 -0 -0 -0 -0 -1 -0 -2 -26 -6 -12 -0 -2 -4 -1 -17 -22 -29 -23 -108 -83 -7 -5 -0 -0 -0 -1 -6 -14 -37 -43 -37 -37 -36 -19 -1 -0 -1 -0 -0 -4 -3 -2 -0 -0 -0 -0
-0 -0 -0 -0 -0 -0 -0 -2 -5 -0 -0 -0 -9 -0 -0 -1 -12 -7 -14 -7 -53 -70 -63 -0 -7 -1 -0 -0 -5 -13 -24 -36 -32 -33 -30 -10 -5 -1 -1 -0 -0 -0 -0 -3 -5 -12 -17 -52 -51
-0 -0 -0 -0 -0 -0 -3 -13 -0 -3 -3 -2 -0 -0 -2 -37 -101 -21 -0 -0 -0 -3 -40 -3 -4 -0 -0 -3 -7 -21 -27 -25 -40 -26 -4 -0 -0 -1 -1 -2 -0 -0 -0 -0 -5 -25 -40 -42 -23
-0 -0 -0 -0 -0 -0 -1 -1 -1 -1 -0 -2 -0 -4 -69 -232 -256 -315 -3 -0 -11 -0 -31 -11 -27 -5 -2 -2 -5 -22 -25 -45 -34 -6 -0 -0 -0 -1 -1 -4 -2 -0 -0 -0 -7 -33 -48 -32 -33
-0 -0 -0 -0 -0 -0 -0 -0 -1 -0 -23 -2 -0 -1 -29 -39 -1 -2 -8 -0 -5 -0 -0 -4 -1 -3 -0 -0 -5 -12 -18 -11 -1 -0 -0 -0 -0 -0 -1 -17 -19 -12 -4 -9 -32 -47 -40 -32 -48
-0 -0 -1 -1 -1 -0 -0 -0 -0 -0 -1 -0 -2 -3 -50 -90 -21 -10 -0 -1 -6 -3 -0 -0 -1 -0 -1 -4 -13 -24 -23 -9 -1 -0 -0 -0 -0 -2 -10 -17 -34 -29 -25 -27 -27 -30 -42 -70 -0
-0 -0 -0 -0 -1 -1 -1 -4 -0 -0 -0 -0 -1 -1 -41 -90 -17 -0 -0 -0 -1 -0 -1 -0 -26 -5 -5 -13 -26 -30 -3 -3 -3 -3 -2 -18 -33 -36 -35 -34 -42 -48 -43 -38 -36 -45 -66 -0 -0
-0 -0 -0 -1 -18 -110 -4 -6 -11 -0 -0 -23 -8 -0 -2 -75 -54 -17 -3 -1 -0 -0 -44 -8 -0 -0 -0 -0 -6 -10 -8 -7 -5 -5 -33 -74 -54 -57 -49 -42 -31 -44 -46 -38 -49 -75 -0 -0 -0
-0 -0 -1 -0 -0 -44 -0 -0 -14 -34 -4 -1 -8 -5 -77 -61 -37 -21 -0 -0 -0 -0 -0 -0 -17 -2 -0 -23 -6 -4 -5 -8 -49 -51 -69 -144 -98 -57 -42 -70 -36 -49 -87 -76 -80 -115 -0 -0 -0
-0 -0 -1 -0 -0 -0 -0 -0 -1 -6 -0 -14 -109 -60 -96 -50 -22 -6 -0 -0 -0 -0 -2 -0 -1 -0 -0 -28 -3 -14 -3 -0 -35 -44 -74 -53 -14 -6 -54 -100 -100 -120 -58 -0 -0 -0 -0 -0 -0
-0 -1 -0 -0 -0 -10 -5 -0 -1 -0 -0 -8 -58 -71 -53 -19 -0 -1 -49 -12 -3 -0 -0 -0 -0 -0 -3 -0 -24 -11 -2 -0 -17 -19 -5 -16 -22 -31 -50 -125 -121 -55 -0 -0 -0 -0 -0 -0 -0
-0 -0 -0 -0 -0 -19 -0 -1 -0 -0 -0 -3 -44 -45 -26 -8 -1 -57 -83 -23 -23 -1 -0 -1 -0 -19 -12 -0 -39 -20 -6 -9 -26 -28 -36 -28 -25 -11 -18 -16 -17 -37 -0 -0 -0 -0 -0 -0 -0
-0 -0 -3 -8 -29 -10 -7 -0 -2 -2 -11 -43 -57 -20 -1 -12 -4 -62 -100 -104 -30 -26 -11 -15 -3 -14 -0 -0 -0 -24 -3 -5 -39 -49 -59 -40 -19 -4 -0 -0 -6 -2 -9 -0 -0 -0 -0 -0 -0
-0 -0 -0 -6 -3 -2 -1 -0 -0 -3 -40 -42 -17 -4 -1 -3 -9 -44 -0 -0 -9 -0 -0 -0 -18 -0 -0 -0 -11 -19 -4 -2 -2 -19 -18 -7 -0 -0 -0 -1 -2 -7 -4 -0 -0 -0 -0 -0 -0
-0 -0 -0 -0 -4 -0 -1 -6 -0 -14 -30 -3 -22 -55 -0 -2 -0 -1 -0 -50 -0 -0 -0 -0 -0 -0 -0 -0 -3 -0 -2 -1 -14 -16 -0 -1 -0 -0 -0 -0 -1 -4 -7 -0 -0 -0 -0 -0 -0
-0 -5 -3 -21 -0 -0 -15 -4 -9 -25 -17 -0 -10 -25 -66 -0 -0 -74 -61 -0 -0 -0 -0 -0 -0 -0 -1 -0 -0 -1 -1 -18 -6 -0 -0 -0 -0 -3 -4 -4 -13 -28 -11 -0 -0 -0 -0 -0 -0
-0 -1 -0 -3 -0 -10 -14 -72 -14 -25 -58 -54 -20 -37 -95 -16 -0 -0 -0 -5 -0 -0 -0 -0 -0 -1 -1 -2 -2 -3 -2 -2 -0 -0 -0 -0 -0 -0 -1 -1 -9 -17 -12 -0 -0 -0 -0 -0 -0
-2 -1 -1 -40 -0 -6 -1 -11 -0 -18 -39 -37 -85 -95 -166 -88 -22 -27 -71 -55 -28 -50 -0 -0 -0 -18 -3 -5 -2 -1 -4 -0 -0 -0 -0 -0 -0 -16 -12 -0 -27 -2 -0 -0 -0 -0 -0 -0 -0
-0 -1 -2 -36 -1 -1 -1 -2 -3 -10 -13 -37 -39 -55 -53 -32 -22 -9 -75 -79 -62 -0 -0 -2 -0 -0 -0 -0 -0 -0 -28 -0 -0 -0 -0 -0 -0 -22 -11 -0 -31 -3 -0 -0 -0 -0 -0 -0 -0
-0 -1 -0 -1 -0 -0 -3 -0 -2 -4 -10 -7 -20 -4 -6 -10 -23 -39 -33 -87 -76 -51 -46 -49 -23 -0 -0 -0 -2 -32 -5 -1 -0 -0 -0 -0 -0 -16 -10 -15 -0 -0 -0 -0 -0 -0 -0 -0 -0
-0 -0 -2 -2 -1 -0 -0 -1 -0 -0 -4 -9 -10 -8 -14 -13 -18 -33 -42 -45 -71 -49 -27 -15 -4 -1 -0 -0 -1 -10 -0 -1 -0 -0 -0 -0 -0 -24 -46 -3 -5 -16 -5 -0 -0 -0 -0 -0 -0
-0 -0 -2 -10 -3 -1 -2 -8 -25 -0 -0 -1 -0 -5 -7 -2 -3 -16 -31 -38 -69 -65 -15 -24 -11 -2 -0 -1 -1 -4 -1 -0 -0 -0 -1 -8 -55 -32 -27 -24 -23 -12 -5 -8 -2 -0 -0 -0 -1
-3 -1 -1 -0 -0 -3 -0 -0 -23 -4 -0 -0 -1 -11 -18 -3 -2 -2 -21 -32 -37 -45 -33 -22 -26 -6 -0 -10 -1 -0 -0 -0 -1 -0 -6 -18 -50 -31 -33 -19 -22 -8 -3 -2 -0 -0 -0 -1 -2
-0 -0 -0 -0 -0 -0 -1 -0 -20 -8 -1 -1 -1 -3 -6 -17 -15 -2 -0 -6 -33 -32 -24 -13 -24 -21 -0 -3 -5 -1 -0 -0 -4 -0 -22 -59 -20 -13 -3 -1 -10 -3 -1 -0 -0 -0 -0 -0 -0
-4 -0 -0 -0 -0 -0 -1 -4 -2 -68 -1 -2 -5 -1 -5 -7 -8 -8 -1 -0 -0 -15 -20 -11 -29 -13 -0 -1 -0 -66 -109 -17 -1 -2 -36 -49 -52 -52 -12 -1 -0 -0 -0 -0 -2 -9 -17 -4 -0
-3 -0 -0 -6 -0 -2 -4 -18 -0 -3 -28 -38 -3 -21 -6 -2 -2 -5 -3 -0 -0 -0 -5 -19 -30 -11 -20 -8 -50 -46 -161 -85 -17 -0 -40 -34 -46 -12 -8 -0 -0 -0 -0 -0 -3 -1 -0 -0 -0
-1 -0 -0 -2 -2 -1 -0 -1 -11 -0 -0 -19 -36 -18 -11 -6 -1 -0 -2 -1 -0 -0 -0 -0 -9 -17 -36 -28 -87 -127 -164 -86 -20 -23 -31 -17 -12 -11 -9 -0 -0 -2 -0 -0 -0 -0 -0 -1 -0
-0 -1 -0 -0 -0 -0 -0 -0 -2 -13 -14 -0 -2 -29 -9 -14 -11 -11 -3 -1 -1 -0 -0 -0 -0 -0 -25 -118 -42 -154 -124 -49 -24 -10 -53 -49 -39 -16 -3 -1 -1 -0 -0 -1 -0 -5 -3 -0 -0
-0 -0 -1 -1 -0 -0 -0 -1 -13 -2 -8 -0 -19 -45 -38 -23 -17 -36 -46 -44 -28 -5 -0 -0 -0 -0 -6 -40 -24 -74 -109 -84 -46 -36 -47 -67 -42 -46 -22 -6 -3 -0 -4 -3 -0 -1 -0 -0 -0
-3 -0 -0 -0 -0 -0 -0 -1 -2 -10 -8 -36 -76 -36 -24 -33 -30 -19 -39 -60 -63 -65 -48 -19 -17 -1 -0 -2 -42 -73 -24 -43 -50 -27 -24 -65 -60 -48 -50 -20 -11 -0 -0 -13 -2 -0 -0 -1 -0
Wind_Speed
nan nan nan nan nan nan nan nan nan nan nan 33 43 16 20 42 25 38 40 34 46 45 34 33 37 38 39 40 42 39 37 38 37 33 33 34 33 33 25 26 26 27 28 30 32 nan nan nan nan
nan nan nan nan nan nan nan nan nan nan 33 26 29 33 39 54 49 47 48 29 31 31 36 39 37 38 38 38 38 37 35 37 34 33 34 33 35 35 30 29 25 27 28 30 31 nan nan nan nan
nan nan nan nan nan nan nan nan nan 32 35 20 24 34 44 39 49 42 41 31 36 32 42 46 39 36 35 37 39 39 37 32 30 31 34 33 33 33 33 30 29 29 29 32 33 34 nan nan 27
nan nan nan nan nan nan nan nan 29 18 21 14 17 31 40 37 33 44 41 22 35 41 36 42 39 22 25 41 41 42 35 31 32 29 31 33 34 34 35 34 32 29 31 33 34 33 nan 26 24
nan nan nan nan nan nan nan nan 17 16 22 23 19 22 42 44 46 50 6 7 43 17 13 26 28 29 35 41 43 43 37 33 35 37 33 35 35 34 34 32 31 33 36 34 33 28 24 22 23
nan nan nan nan nan nan nan 22 14 16 19 20 12 36 33 31 36 32 28 27 21 25 23 29 34 35 39 39 38 39 39 38 38 40 38 36 39 35 32 29 30 32 35 33 28 23 25 nan nan
nan nan nan nan nan 22 21 17 19 21 16 23 28 32 26 26 26 26 30 28 22 27 31 31 31 38 37 39 37 38 39 40 36 40 42 44 40 37 35 30 31 33 32 28 25 20 23 nan nan
nan nan nan nan nan nan 15 12 11 15 29 25 25 20 23 27 28 33 36 33 28 34 31 30 30 33 35 36 40 43 41 52 47 45 51 50 42 39 37 34 32 31 27 20 21 23 nan nan nan
nan nan nan nan nan nan 15 5 14 14 12 25 31 36 36 32 31 34 36 38 35 33 35 38 38 39 nan nan 52 44 44 47 56 56 49 45 nan nan 34 39 29 22 21 21 21 nan nan nan nan
nan nan nan nan nan nan nan 10 21 11 16 22 25 34 33 33 29 33 35 38 34 35 35 38 40 39 39 nan 34 44 46 49 46 55 48 nan 43 37 36 28 23 20 nan nan nan nan nan nan nan
nan nan nan nan nan nan nan 5 14 13 14 25 20 23 23 22 26 33 36 38 39 35 37 38 43 39 nan nan nan 36 39 46 49 54 61 51 49 38 28 nan nan nan nan nan nan nan nan nan nan
nan nan nan nan nan nan 8 12 16 15 21 26 25 22 23 22 23 28 31 38 42 40 38 40 37 nan nan nan nan 45 39 56 58 38 48 44 45 31 19 9 6 nan nan nan nan nan nan nan nan
nan nan nan nan nan nan 12 14 13 23 28 29 30 25 26 30 34 nan nan nan nan nan nan nan nan nan nan nan nan 40 45 31 33 41 47 44 22 16 9 8 nan nan nan nan nan nan nan nan nan
nan nan nan nan 9 10 4 13 14 27 32 32 30 24 14 nan nan nan nan nan nan nan nan nan nan nan nan nan nan nan 24 30 29 32 29 18 13 8 4 5 nan nan nan nan nan nan nan nan nan
nan nan nan nan 2 6 13 17 22 27 26 24 24 nan nan nan nan nan nan nan nan nan nan nan nan nan nan nan nan nan 25 12 13 19 14 14 9 2 3 10 13 nan nan nan nan nan nan nan nan
nan nan nan nan nan 10 nan 24 28 26 20 16 17 13 nan 9 13 nan nan nan nan nan nan nan nan nan nan 16 8 11 14 20 18 12 8 8 4 4 5 13 nan nan nan nan nan nan nan nan nan
nan nan nan nan nan 7 22 nan 32 32 20 nan 16 17 nan 18 14 12 15 nan nan nan nan nan nan nan 13 21 16 nan nan 16 nan 10 5 1 3 6 5 8 nan nan nan nan nan nan nan nan nan
nan nan nan 23 nan nan 8 nan 27 33 25 15 nan nan nan 11 12 9 nan nan nan nan nan nan 10 14 10 10 12 7 nan 7 8 4 2 4 5 9 4 8 nan nan nan nan nan nan nan nan nan
nan nan nan nan nan nan nan nan nan 31 24 19 16 nan nan 16 12 10 nan nan nan nan nan nan nan 14 8 5 5 nan nan 2 3 3 0 9 6 7 9 14 nan nan nan nan nan nan nan nan nan
nan nan nan nan nan nan nan nan nan 31 23 19 12 13 13 14 14 16 16 nan nan nan nan nan nan 12 9 7 6 nan 8 7 6 9 8 6 7 9 12 nan nan nan nan nan nan nan nan nan nan
nan nan nan nan nan nan nan nan nan 29 25 17 16 10 12 13 16 18 18 20 18 17 17 15 15 12 10 9 9 8 7 9 10 8 9 7 9 12 nan nan nan nan nan nan nan nan nan nan nan
nan nan nan nan nan nan nan nan nan nan 26 21 18 11 13 14 14 16 19 21 20 16 17 21 20 20 15 11 10 12 11 10 10 9 12 14 nan nan nan nan nan nan nan nan nan nan nan nan nan
nan nan nan nan nan nan nan nan nan nan nan 19 17 20 15 14 16 16 16 15 17 20 19 20 22 22 24 27 18 22 16 15 16 15 14 15 nan nan nan nan nan nan nan nan nan nan nan nan nan
nan nan nan nan 3 5 nan nan nan nan nan nan nan 21 22 21 21 19 18 19 16 18 20 22 23 24 22 27 26 21 20 24 22 20 21 nan nan nan nan nan nan nan nan nan nan nan nan nan nan
nan nan 6 3 6 2 nan nan nan nan nan nan nan 15 29 26 25 23 23 23 26 27 27 27 28 29 28 29 25 36 43 20 23 22 18 nan nan nan nan 35 36 36 nan nan nan nan nan nan nan
nan nan 4 nan 8 13 nan nan nan nan nan nan nan nan nan 34 27 24 23 23 22 25 29 29 31 30 27 29 40 31 40 9 7 16 18 20 nan 29 35 34 34 nan nan nan nan nan nan nan nan
nan nan 10 nan 17 21 10 nan nan nan nan nan nan 17 15 12 19 22 19 21 25 29 33 34 33 33 38 28 31 31 27 31 24 25 24 23 31 33 36 35 nan nan nan nan nan nan nan nan nan
nan nan 13 19 nan 8 4 5 15 nan nan nan nan nan 25 17 13 12 11 13 21 25 31 35 33 32 32 34 26 27 24 28 28 28 27 38 30 33 37 39 nan nan nan nan nan nan nan nan nan
nan nan nan 14 9 14 9 9 16 nan nan nan nan nan nan nan 21 18 16 15 13 18 28 29 26 27 33 30 32 29 32 33 33 29 35 37 35 39 40 nan nan nan nan nan nan nan nan nan nan
nan nan nan 17 10 21 23 16 nan nan nan nan nan nan nan nan 26 25 21 21 22 22 25 28 26 26 31 36 36 33 33 35 35 36 40 40 nan nan nan nan nan nan nan nan nan nan nan nan nan
Wind_Direction
nan nan nan nan nan nan nan nan nan nan nan 234 218 209 234 244 249 254 275 201 232 244 250 262 261 264 268 269 269 271 273 277 282 287 284 277 278 275 283 279 285 286 285 289 285 nan nan nan nan
nan nan nan nan nan nan nan nan nan nan 220 236 232 221 239 252 249 254 265 281 245 249 263 262 253 259 262 265 268 272 275 280 290 282 278 278 275 274 275 272 278 289 289 292 290 nan nan nan nan
nan nan nan nan nan nan nan nan nan 233 246 231 233 231 230 239 245 235 241 267 263 256 269 260 253 249 259 268 270 273 276 282 287 280 277 273 273 275 273 269 269 286 289 292 286 281 nan nan 273
nan nan nan nan nan nan nan nan 229 220 255 217 218 250 246 237 234 235 211 255 263 252 239 254 241 266 265 267 270 273 281 282 281 289 279 278 274 284 277 273 268 275 284 291 283 276 nan 271 277
nan nan nan nan nan nan nan nan 242 178 228 218 218 246 249 239 242 263 292 252 261 268 244 268 278 277 272 272 274 275 277 278 280 286 283 273 277 278 270 271 271 276 282 286 283 276 270 269 276
nan nan nan nan nan nan nan 229 185 212 232 239 207 250 236 242 247 251 273 293 252 293 275 267 269 270 274 281 281 276 276 274 274 283 273 268 266 270 266 270 275 278 282 280 273 268 269 nan nan
nan nan nan nan nan 234 250 217 205 200 223 257 218 237 246 243 245 247 249 252 262 250 256 258 263 266 260 262 266 266 268 271 272 270 263 260 257 269 267 270 272 276 271 269 267 268 271 nan nan
nan nan nan nan nan nan 266 249 231 217 237 226 231 253 260 252 241 250 248 245 252 261 255 267 251 254 266 259 256 255 257 264 265 279 264 257 254 263 270 273 272 270 261 257 264 268 nan nan nan
nan nan nan nan nan nan 262 231 276 251 247 246 227 233 252 265 256 250 248 249 245 249 271 276 273 279 nan nan 262 267 253 263 267 266 277 252 nan nan 270 259 263 250 257 265 268 nan nan nan nan
nan nan nan nan nan nan nan 208 244 252 271 268 252 258 255 256 260 252 248 253 254 255 263 276 279 277 277 nan 290 298 282 273 271 264 269 nan 244 247 242 241 234 250 nan nan nan nan nan nan nan
nan nan nan nan nan nan nan 247 265 259 294 207 275 269 251 257 256 255 253 255 263 263 260 270 271 271 nan nan nan 279 263 261 259 251 255 239 242 239 229 nan nan nan nan nan nan nan nan nan nan
nan nan nan nan nan nan 218 244 294 269 257 270 287 283 267 258 248 255 257 256 259 260 267 268 260 nan nan nan nan 251 273 264 260 271 251 268 250 250 237 173 233 nan nan nan nan nan nan nan nan
nan nan nan nan nan nan 243 256 284 285 283 282 282 277 263 259 255 nan nan nan nan nan nan nan nan nan nan nan nan 250 258 268 269 270 260 258 235 187 130 230 nan nan nan nan nan nan nan nan nan
nan nan nan nan 238 270 258 302 347 301 297 291 292 279 251 nan nan nan nan nan nan nan nan nan nan nan nan nan nan nan 269 272 272 255 237 223 149 154 215 243 nan nan nan nan nan nan nan nan nan
nan nan nan nan 291 229 248 195 299 319 308 312 287 nan nan nan nan nan nan nan nan nan nan nan nan nan nan nan nan nan 269 258 208 201 150 116 129 148 269 279 270 nan nan nan nan nan nan nan nan
nan nan nan nan nan 296 nan 93 324 325 333 343 313 330 nan 242 247 nan nan nan nan nan nan nan nan nan nan 275 217 206 198 162 138 107 128 105 121 247 266 276 nan nan nan nan nan nan nan nan nan
nan nan nan nan nan 10 309 nan 323 325 334 nan 356 358 nan 78 71 52 24 nan nan nan nan nan nan nan 97 99 118 nan nan 111 nan 131 167 62 286 277 270 251 nan nan nan nan nan nan nan nan nan
nan nan nan 333 nan nan 84 nan 309 325 332 356 nan nan nan 37 36 39 nan nan nan nan nan nan 23 43 50 73 83 93 nan 112 136 194 130 272 272 298 272 258 nan nan nan nan nan nan nan nan nan
nan nan nan nan nan nan nan nan nan 325 344 336 354 nan nan 17 8 358 nan nan nan nan nan nan nan 32 43 90 89 nan nan 310 217 206 222 296 284 279 262 260 nan nan nan nan nan nan nan nan nan
nan nan nan nan nan nan nan nan nan 317 357 1 359 7 2 351 349 341 351 nan nan nan nan nan nan 25 20 6 348 nan 297 286 274 264 242 233 245 263 276 nan nan nan nan nan nan nan nan nan nan
nan nan nan nan nan nan nan nan nan 318 342 352 4 10 12 3 353 348 348 349 354 358 357 358 8 351 338 7 322 322 299 249 230 215 251 261 287 296 nan nan nan nan nan nan nan nan nan nan nan
nan nan nan nan nan nan nan nan nan nan 333 339 351 354 351 5 6 355 352 349 347 352 347 355 356 345 328 336 310 326 308 283 250 229 246 255 nan nan nan nan nan nan nan nan nan nan nan nan nan
nan nan nan nan nan nan nan nan nan nan nan 328 344 349 355 358 357 356 354 351 348 347 343 344 349 350 341 329 325 313 312 283 265 257 262 280 nan nan nan nan nan nan nan nan nan nan nan nan nan
nan nan nan nan 119 257 nan nan nan nan nan nan nan 348 358 359 357 352 341 335 334 330 332 329 338 338 336 318 317 296 289 289 254 261 258 nan nan nan nan nan nan nan nan nan nan nan nan nan nan
nan nan 69 338 246 307 nan nan nan nan nan nan nan 320 335 339 344 339 337 338 333 331 325 322 336 342 340 310 322 307 311 287 274 253 277 nan nan nan nan 301 300 301 nan nan nan nan nan nan nan
nan nan 216 nan 193 264 nan nan nan nan nan nan nan nan nan 318 324 335 335 338 336 335 332 329 331 333 322 311 313 320 316 328 20 345 310 316 nan 304 299 301 305 nan nan nan nan nan nan nan nan
nan nan 143 nan 225 193 191 nan nan nan nan nan nan 259 265 292 293 322 334 328 332 331 333 331 332 333 329 318 312 327 323 357 353 323 317 311 297 298 307 311 nan nan nan nan nan nan nan nan nan
nan nan 221 212 nan 261 316 219 250 nan nan nan nan nan 264 259 250 261 298 324 329 327 321 320 330 328 319 313 325 307 330 335 333 322 319 309 309 317 311 308 nan nan nan nan nan nan nan nan nan
nan nan nan 220 237 232 205 245 207 nan nan nan nan nan nan nan 254 263 262 270 281 304 311 313 315 315 311 318 318 317 322 322 317 316 309 314 318 313 310 nan nan nan nan nan nan nan nan nan nan
nan nan nan 241 227 253 247 219 nan nan nan nan nan nan nan nan 254 264 263 264 270 281 288 294 299 305 307 306 313 319 312 310 311 309 306 308 nan nan nan nan nan nan nan nan nan nan nan nan nan